GFSSGP_prec_cloud_354.txt.gz
Cloud_Cover
100 63 63 100 57 96 100 68 5 11 21 5 5 5 5 5 28 3 15 4 5 15 5 24 5 9 5 5 4 4 5 0 0 0 5 5 5 51 27 100 22 74 100 100 100 100 100 100 100
28 62 20 15 99 100 100 72 38 17 5 5 10 5 4 5 5 72 56 35 2 5 5 47 35 7 5 5 4 1 3 0 0 0 3 14 67 90 99 7 7 61 100 100 94 100 100 100 100
4 3 40 5 12 100 100 77 5 18 5 5 5 6 1 5 3 7 5 33 4 6 5 6 49 26 6 5 5 1 0 0 0 0 5 75 66 87 100 21 5 36 88 100 13 18 100 100 100
0 89 65 10 2 37 100 81 5 5 5 5 6 40 5 0 0 3 6 3 5 21 7 5 83 11 16 5 5 4 0 0 0 5 5 5 98 90 100 20 24 99 100 90 82 99 95 83 100
43 97 52 36 0 6 98 93 52 64 5 5 6 21 42 0 7 1 1 5 6 22 16 49 25 21 5 5 16 4 0 0 4 5 4 2 7 43 100 24 19 66 100 54 6 76 86 98 100
100 32 32 2 0 4 67 4 88 100 65 5 23 74 48 7 59 5 3 41 5 14 6 34 48 30 5 5 5 5 5 4 5 5 5 5 9 54 75 5 6 100 98 5 5 5 5 5 84
98 99 0 0 0 0 0 5 50 45 100 26 70 53 66 40 14 5 48 98 28 5 5 5 5 19 84 5 5 5 5 0 5 5 0 19 5 5 6 29 66 100 7 6 10 5 92 64 10
99 98 1 0 0 0 0 0 0 5 75 65 5 15 67 16 35 8 100 100 55 5 5 5 5 53 68 43 5 5 5 2 5 3 2 0 4 3 5 71 26 8 5 12 5 5 9 23 14
100 100 76 6 0 0 2 17 44 4 5 22 26 21 35 6 5 31 100 100 34 10 62 6 5 5 82 20 13 48 5 5 2 5 4 4 4 15 5 7 9 60 14 11 62 68 35 22 5
100 100 5 26 1 0 0 91 36 5 8 62 5 100 45 6 15 100 83 68 65 40 7 13 48 5 62 18 10 33 19 5 15 5 5 5 5 20 5 45 75 5 5 51 84 94 100 100 88
100 100 84 61 21 1 2 100 100 13 6 7 51 17 90 48 80 100 88 100 73 9 4 8 16 10 13 40 30 89 15 5 5 5 5 0 12 18 25 54 54 7 5 5 76 87 100 100 99
100 100 100 73 74 5 23 69 5 70 0 56 40 19 5 95 74 65 99 87 38 20 14 5 5 97 5 5 66 7 78 8 8 18 4 14 24 23 24 30 52 27 5 8 47 5 5 5 44
100 100 100 100 100 5 90 12 9 49 5 9 5 5 22 100 100 66 93 38 46 39 16 5 5 53 16 5 5 5 50 56 36 20 4 5 13 12 5 5 5 5 5 2 5 5 4 4 5
100 100 100 100 100 25 19 7 100 91 27 37 16 11 77 100 68 93 100 72 53 23 42 9 9 30 41 5 5 5 15 30 31 5 3 0 0 1 0 1 0 0 1 0 3 5 18 6 3
100 100 100 100 100 86 90 69 98 83 36 96 97 18 86 100 99 66 34 42 28 52 57 41 5 5 48 24 5 94 20 33 23 5 5 4 2 0 0 0 2 0 0 4 32 100 100 11 31
100 100 100 100 100 100 90 2 64 98 96 100 100 78 99 100 100 100 45 7 16 23 87 65 24 5 5 38 64 35 100 77 41 44 7 5 0 0 0 0 3 5 2 0 0 15 7 1 0
100 100 100 100 100 100 77 12 91 88 50 100 100 62 100 100 100 100 99 84 35 36 85 71 89 61 8 44 100 88 9 74 77 5 10 5 4 0 0 0 0 2 0 0 0 0 0 0 0
100 100 100 100 100 100 92 5 92 98 77 100 100 100 98 100 98 100 100 100 97 100 100 100 97 100 99 100 100 97 48 62 97 11 5 5 5 4 0 1 0 5 5 0 0 0 0 0 0
100 100 100 100 100 99 74 5 5 100 89 100 92 100 100 100 100 100 100 100 100 100 100 100 100 56 98 100 96 100 82 16 39 87 19 5 5 5 5 0 5 5 5 2 0 0 0 0 0
100 100 100 100 100 100 100 84 72 84 99 91 99 90 100 100 99 100 100 100 100 100 100 100 100 100 95 99 99 81 42 22 5 14 80 5 5 5 5 5 5 12 11 5 5 3 0 0 0
100 100 100 100 100 100 100 90 57 99 100 100 100 56 96 51 90 89 85 100 100 100 100 100 100 100 100 98 90 94 100 96 61 9 5 10 5 5 5 13 83 61 96 33 5 5 5 0 0
100 100 100 100 100 100 100 100 68 100 100 83 100 100 86 100 96 100 98 99 100 100 100 100 100 100 100 100 100 100 100 97 99 100 100 100 69 45 27 100 98 100 92 90 21 6 5 5 0
100 100 100 100 100 100 100 100 54 100 100 90 52 90 100 100 34 96 100 64 100 100 100 100 100 100 100 100 100 92 99 99 100 100 100 100 100 100 67 100 89 100 100 58 25 6 86 38 1
69 100 100 100 100 100 100 39 29 50 15 16 6 7 49 100 78 5 49 78 100 100 100 100 100 100 100 100 100 100 100 100 100 100 100 100 100 100 48 82 73 100 30 5 66 98 25 5 5
100 100 100 100 100 100 100 98 6 81 16 5 50 89 97 100 66 12 100 30 100 100 100 100 100 100 100 100 100 100 100 100 100 100 100 100 100 100 74 69 86 69 76 86 100 7 5 5 5
100 100 100 100 100 100 100 91 0 9 86 2 17 100 100 98 96 100 100 37 96 100 100 100 100 100 100 100 100 100 97 100 100 100 100 100 95 99 100 94 70 52 41 41 6 5 5 5 5
100 40 72 64 100 100 83 19 0 5 5 2 2 4 4 17 10 96 100 19 5 89 100 100 100 100 100 100 100 100 100 100 100 100 100 100 100 100 100 100 100 67 44 42 24 49 83 78 100
28 54 89 60 79 9 94 8 4 3 8 5 1 0 1 93 28 38 12 92 61 10 6 100 100 100 100 100 100 100 100 100 100 100 100 100 100 100 100 100 100 100 96 99 100 100 100 100 100
100 78 46 66 72 89 95 90 100 83 38 34 33 48 7 89 43 92 100 100 100 100 37 70 100 100 100 100 100 100 100 100 100 100 100 100 100 100 100 100 100 100 100 100 100 100 100 100 100
100 100 100 100 100 80 98 100 100 61 70 98 100 99 100 100 88 70 66 100 100 47 31 99 100 100 100 100 100 100 100 100 100 100 100 100 100 100 100 100 100 100 100 100 100 100 100 100 100

GFSSGP_prec_cloud_357.txt.gz
Cloud_Cover
100 72 9 7 36 3 95 94 9 7 49 100 100 91 77 6 75 5 5 5 4 33 5 5 5 5 5 5 5 4 0 0 0 0 0 13 31 65 5 7 5 71 96 95 99 100 100 100 100
100 76 47 0 12 33 84 97 5 6 4 98 100 95 72 5 9 100 48 26 1 5 5 5 5 5 3 5 4 2 5 0 0 0 1 10 6 33 7 5 5 7 91 94 63 100 100 100 100
100 100 76 32 14 37 96 100 7 3 27 46 53 100 60 15 92 89 4 47 12 5 5 5 5 5 5 5 5 0 2 0 0 0 5 7 29 87 24 5 6 93 8 28 5 100 100 100 100
100 100 100 91 3 3 100 91 5 8 5 17 79 95 8 15 4 7 46 31 30 29 23 5 5 5 5 4 5 2 0 2 0 2 5 17 98 42 5 48 5 6 5 5 5 90 100 100 100
100 100 33 99 13 1 6 57 5 11 5 8 5 74 14 5 5 53 48 37 60 52 10 5 5 5 5 5 5 5 0 1 4 2 2 100 100 55 5 89 5 91 77 5 54 5 17 14 53
100 100 53 8 99 90 44 8 5 2 5 56 67 62 73 81 72 69 45 34 37 76 39 5 5 10 5 5 5 4 0 3 5 5 5 4 10 5 5 8 41 26 35 5 5 5 6 5 5
100 93 47 0 1 100 74 1 1 5 5 61 99 32 98 100 60 37 22 27 53 40 31 11 5 5 52 0 4 3 5 2 5 5 3 1 7 5 5 5 67 44 5 9 89 5 5 5 5
100 100 68 2 1 2 100 12 2 73 12 5 54 100 100 100 65 29 7 37 59 52 50 48 52 5 10 5 0 4 12 28 5 5 4 5 6 13 5 27 78 6 5 14 8 6 5 5 5
100 100 92 5 27 1 26 9 94 60 5 5 5 32 100 95 69 60 70 73 95 82 50 34 29 20 12 9 5 1 5 90 5 5 5 4 2 1 0 26 9 9 55 70 5 5 5 5 5
100 100 71 35 82 4 0 0 5 7 9 10 20 34 96 100 87 73 59 95 100 100 66 18 23 28 5 11 43 64 41 55 23 9 4 4 5 0 5 5 5 11 15 44 5 5 5 5 5
100 93 100 99 41 60 0 74 0 27 33 0 54 100 100 100 100 100 63 100 100 89 65 31 21 5 5 51 72 98 76 52 39 10 5 6 18 26 23 25 23 6 36 5 5 5 5 5 8
100 100 99 100 74 54 3 100 0 4 4 4 0 24 100 97 54 82 95 100 100 69 64 42 12 14 26 54 70 83 62 53 49 21 10 11 25 31 29 30 17 6 5 53 94 91 97 81 5
100 100 100 100 100 100 19 100 5 8 30 1 5 68 59 28 67 74 100 100 100 58 85 47 18 21 39 37 52 26 41 37 52 24 19 9 18 26 19 18 6 5 24 91 83 90 5 5 5
99 100 100 100 100 100 100 100 100 96 40 4 14 37 34 5 58 100 100 100 98 98 84 86 80 24 24 24 8 5 20 13 48 34 12 5 6 6 5 5 5 8 15 22 13 5 5 5 2
100 100 100 100 100 100 100 64 93 70 33 35 11 5 5 94 95 78 100 100 100 61 100 99 72 100 67 45 5 5 5 7 35 20 5 5 5 5 5 5 5 4 3 0 2 5 0 0 3
100 100 100 100 100 100 100 5 85 99 26 87 52 30 2 100 87 83 100 100 73 19 82 98 100 100 69 36 26 5 6 23 9 5 19 3 5 5 5 5 8 1 0 0 0 0 0 0 0
100 90 100 100 100 100 100 5 76 100 27 99 90 93 56 100 100 100 100 100 41 88 84 58 47 100 89 60 6 20 63 20 12 5 27 5 1 5 5 5 5 5 5 2 0 0 1 0 0
100 100 100 100 100 100 100 7 44 77 53 78 84 93 94 100 100 100 100 82 70 89 100 39 84 92 99 80 88 50 24 97 47 5 5 5 4 6 5 12 33 16 5 5 0 5 5 3 0
100 100 100 100 100 100 100 65 26 100 100 100 100 92 98 100 100 100 100 98 93 95 100 100 100 99 76 39 90 95 5 6 87 24 70 5 37 5 5 11 67 32 5 5 2 1 5 5 4
100 100 100 100 100 100 100 51 5 100 78 100 100 99 100 100 100 100 100 100 100 99 99 100 100 100 100 51 99 45 17 100 100 100 73 8 100 80 64 9 5 49 5 5 3 5 5 5 5
100 100 100 100 100 100 100 57 76 99 100 100 100 100 81 99 82 100 98 100 100 100 94 100 100 100 100 98 100 92 97 100 100 100 89 60 55 11 15 5 5 5 5 5 5 5 5 5 6
100 100 100 100 100 100 100 94 99 56 99 100 100 100 100 100 100 94 61 79 100 100 100 100 100 100 100 100 99 91 100 100 94 98 100 100 79 95 96 93 59 5 5 5 5 5 5 5 5
100 100 100 100 100 100 100 100 100 99 98 100 100 100 100 100 97 67 5 100 63 100 99 91 100 100 100 100 100 98 100 100 98 100 100 100 100 72 100 100 100 8 5 5 5 5 5 5 5
100 100 100 100 100 100 100 100 11 10 4 14 80 99 100 100 100 40 92 100 99 99 100 100 100 100 100 100 100 100 100 100 100 100 100 100 100 100 100 99 100 80 72 26 5 5 5 15 8
98 96 100 100 100 100 100 100 12 5 17 27 81 100 100 100 100 90 100 100 100 100 100 95 100 100 100 100 100 100 100 100 100 100 100 100 100 100 100 99 100 84 97 91 66 15 5 54 46
100 100 100 100 100 100 100 100 100 1 94 100 100 100 98 99 85 34 60 100 100 98 100 100 100 100 100 100 100 100 100 100 100 100 100 100 100 100 100 100 100 100 100 100 100 83 19 43 70
92 77 100 100 66 100 100 100 100 7 42 5 5 2 1 44 98 68 67 99 13 89 100 100 100 49 98 100 100 100 100 100 100 100 100 100 100 100 100 100 100 100 100 100 100 100 100 99 76
6 55 98 85 100 100 100 100 100 97 13 23 7 5 16 5 37 100 89 96 80 5 68 100 100 77 93 100 100 100 100 100 100 100 100 100 100 100 100 100 100 100 100 100 100 100 100 100 100
92 99 85 98 98 93 100 100 100 100 30 68 31 42 90 7 63 91 100 100 98 84 88 98 100 100 100 100 100 100 100 100 100 100 100 100 100 100 100 100 100 100 100 100 100 100 100 100 100
100 100 100 100 99 43 63 100 100 96 41 0 96 51 18 99 100 100 100 100 100 100 100 100 100 100 100 100 100 100 56 100 100 100 100 100 100 100 100 100 100 100 100 100 100 100 100 100 100

GFSSGP_prec_cloud_360.txt.gz
Cloud_Cover
53 89 66 41 58 92 100 100 100 22 4 0 1 99 100 99 73 14 5 5 6 19 32 25 51 13 5 5 5 4 0 0 0 2 3 22 5 5 5 5 37 93 11 14 41 98 100 100 100
98 100 30 79 14 17 78 100 100 100 12 5 3 0 97 100 86 100 72 32 5 13 5 49 98 99 5 5 5 3 0 0 0 6 8 19 5 5 5 5 48 92 100 100 98 92 22 100 100
72 100 66 94 17 0 5 42 100 100 96 66 69 11 1 6 100 100 11 45 5 15 5 21 82 98 8 5 5 5 1 0 5 2 5 5 5 14 5 5 5 5 100 34 6 5 5 36 95
98 98 90 98 0 4 5 6 6 74 100 100 100 97 32 6 12 33 86 48 14 40 5 5 27 49 71 5 5 4 5 0 0 2 5 5 86 5 5 5 5 5 5 5 5 5 5 5 5
100 100 100 83 86 97 4 31 9 1 21 99 100 100 46 95 2 53 94 57 46 67 20 5 9 13 100 14 5 5 4 1 0 2 4 100 39 5 5 45 5 5 5 46 66 6 3 5 5
100 100 100 41 0 44 100 89 76 1 0 51 100 100 69 22 97 88 84 70 96 61 21 4 5 6 79 90 5 5 5 1 5 5 26 100 92 4 5 34 35 6 26 5 5 5 43 5 5
100 100 100 46 0 0 24 100 90 5 0 9 6 99 99 100 100 100 100 100 100 75 34 22 4 5 20 76 5 5 5 5 5 5 62 41 0 3 5 8 100 7 26 5 5 7 6 0 0
100 92 91 47 5 0 0 1 66 99 95 0 0 24 100 100 100 100 100 100 100 92 50 41 48 45 38 5 5 5 5 5 5 0 5 5 4 5 1 67 96 40 39 6 5 5 0 5 5
100 100 100 3 5 0 0 3 0 0 42 100 3 0 36 100 100 100 100 100 100 100 100 93 90 49 32 21 8 5 5 5 4 4 5 0 4 1 0 54 38 5 18 5 0 14 0 0 4
94 100 97 90 42 5 17 16 2 0 34 80 51 9 32 100 100 100 100 100 100 100 100 100 69 59 37 55 61 64 26 62 15 5 5 0 4 5 0 23 27 69 47 21 38 5 5 5 5
84 100 87 99 100 100 36 1 5 4 20 8 90 100 100 100 100 100 100 100 100 100 100 98 65 42 70 100 100 100 91 56 54 43 12 8 16 18 25 30 26 92 34 70 32 5 5 5 5
100 97 100 86 100 100 100 18 95 42 0 7 5 99 100 100 100 100 100 100 100 100 100 100 51 48 97 100 100 100 100 98 54 76 33 45 24 29 30 34 21 11 36 81 82 5 5 6 8
100 59 100 100 100 100 86 91 65 13 26 99 40 100 100 100 100 100 100 100 100 100 100 100 58 63 100 100 100 100 100 100 60 46 44 81 20 26 27 29 17 6 72 100 60 86 42 69 47
97 95 80 100 100 100 100 97 99 87 100 98 100 100 100 100 100 100 100 100 100 100 100 100 97 76 80 100 100 99 100 96 40 65 48 28 72 24 20 20 5 68 100 100 80 90 100 94 41
99 100 100 100 100 100 100 95 100 100 100 97 100 100 100 100 100 100 100 100 100 100 100 100 100 100 100 98 59 56 89 72 96 49 60 5 75 100 6 5 5 58 100 96 100 75 62 4 5
100 97 100 100 100 100 100 73 100 49 100 98 100 100 100 100 100 100 100 100 100 100 100 100 100 100 60 100 100 100 87 55 41 27 27 5 7 5 25 5 5 44 53 42 52 2 5 5 0
100 97 100 100 100 100 100 100 100 78 97 82 100 100 99 100 100 87 100 100 100 100 100 100 78 97 84 94 91 100 99 87 99 33 17 6 8 8 5 5 5 5 5 3 1 0 2 0 0
100 100 100 100 100 100 100 100 100 57 100 60 100 78 36 8 55 67 100 100 100 100 42 64 100 100 81 36 5 15 51 62 49 30 36 19 24 52 15 5 1 4 5 0 0 0 5 2 5
100 100 100 100 100 100 100 100 100 22 100 100 91 52 9 100 43 79 100 100 100 94 98 100 100 100 100 90 8 5 5 92 17 71 100 78 51 6 5 5 5 5 5 3 0 0 4 0 5
100 100 100 100 100 100 100 100 66 57 100 100 99 88 57 94 94 100 100 100 100 100 100 100 100 100 100 100 96 48 15 64 98 94 86 31 5 35 69 14 45 24 5 5 5 1 0 0 0
100 100 100 100 100 100 100 100 99 100 100 100 100 100 100 84 74 100 99 100 100 100 100 100 100 100 100 100 100 100 100 100 97 64 97 82 94 98 100 100 76 87 19 6 5 5 5 1 0
100 100 100 100 100 100 100 97 100 100 100 100 100 100 100 100 86 100 98 100 100 100 100 100 100 100 100 100 100 100 100 99 96 98 81 100 100 70 37 46 100 100 98 33 16 5 5 5 4
100 100 100 100 100 100 100 100 100 100 98 100 100 100 100 100 100 100 100 62 100 100 100 100 100 100 100 100 100 100 100 100 100 98 97 100 82 54 54 41 67 40 69 88 75 42 32 5 5
100 100 100 100 100 100 100 100 95 94 100 100 100 100 100 100 100 100 100 90 91 100 100 100 100 100 100 100 100 100 100 100 100 99 100 100 78 92 98 59 62 13 8 9 52 68 67 24 36
100 100 100 100 100 100 100 96 15 99 100 100 100 100 100 100 100 100 100 100 89 100 100 100 100 100 100 100 100 100 100 100 100 100 100 96 88 97 100 96 100 100 95 82 55 70 89 87 89
97 100 74 100 100 100 100 88 2 100 100 100 100 100 100 100 100 100 100 100 100 100 100 100 100 100 90 100 100 100 100 100 100 100 98 100 100 97 100 100 100 100 100 100 100 100 100 100 100
89 100 100 100 99 100 100 100 5 16 100 100 100 100 100 100 100 100 100 100 100 100 100 100 81 100 100 100 100 100 100 100 100 100 100 100 100 99 100 100 100 100 100 99 100 100 100 100 100
94 86 100 62 100 100 100 100 100 5 32 100 100 100 100 100 100 100 100 100 100 100 100 89 100 100 84 100 100 100 100 100 100 100 100 100 100 100 100 100 100 100 100 100 100 100 100 100 100
5 99 100 100 73 100 100 100 100 100 35 96 93 100 94 100 100 100 100 100 100 100 100 72 82 100 100 100 89 100 100 100 100 100 100 100 100 100 100 100 100 100 100 100 100 100 100 100 100
95 4 12 100 84 90 97 100 100 100 99 72 68 71 100 100 100 100 100 100 100 100 100 100 100 86 100 100 100 100 100 100 100 100 100 100 100 100 100 100 100 100 100 100 100 100 100 100 100

GFSSGP_prec_cloud_366.txt.gz
Cloud_Cover
100 100 64 97 3 1 68 100 100 6 5 4 92 87 5 10 39 94 27 4 3 3 70 5 84 5 5 5 1 4 3 5 5 4 3 0 2 4 6 11 7 0 5 6 97 100 88 100 100
95 99 100 100 58 0 6 100 100 99 34 84 4 2 4 38 76 11 35 10 5 1 22 32 34 83 5 5 2 4 5 5 5 5 4 5 4 0 2 5 5 0 5 44 100 52 2 40 94
94 100 90 62 100 0 21 77 35 89 100 100 100 6 2 3 5 5 91 78 5 4 10 50 84 100 70 5 0 0 5 5 5 5 5 5 5 5 4 0 0 0 0 93 47 19 7 0 11
100 66 94 100 2 0 100 89 60 96 5 14 100 92 37 1 0 36 92 26 4 12 97 82 16 80 100 5 4 4 0 5 5 5 5 5 5 5 5 5 5 1 14 0 84 100 83 74 26
15 91 99 52 34 40 100 12 99 100 41 0 88 100 99 8 1 4 62 40 6 31 94 21 32 35 50 30 5 5 2 7 5 5 5 10 5 5 5 5 98 7 0 0 90 61 20 23 0
28 32 45 60 0 100 100 95 100 100 91 0 8 97 100 100 35 0 3 2 37 55 100 48 4 26 94 5 7 5 4 5 5 12 6 5 5 5 5 5 5 4 0 0 0 0 20 0 0
1 10 9 48 5 72 21 100 82 100 99 2 0 18 100 100 100 71 10 41 100 100 100 82 35 5 54 99 6 5 5 5 5 5 100 32 5 5 5 5 18 5 5 4 4 0 5 4 0
1 28 61 33 15 30 71 100 80 100 100 58 0 0 100 100 100 100 100 100 100 100 73 38 65 30 40 30 20 5 8 5 5 54 93 90 41 56 5 5 23 6 5 5 5 3 3 4 0
3 44 30 14 86 96 100 100 96 14 3 3 4 0 1 16 92 100 100 100 100 100 94 92 46 49 28 89 27 17 8 5 5 14 98 6 43 54 32 26 39 5 5 5 5 5 5 3 0
0 2 0 2 1 67 93 100 100 88 5 0 0 0 5 62 100 100 100 100 100 100 100 92 58 48 82 79 28 27 91 24 42 48 14 33 40 80 100 17 100 6 87 24 5 5 6 5 5
3 0 0 0 2 99 94 100 100 100 79 2 0 4 73 100 100 100 100 100 100 100 100 100 82 81 98 99 67 38 77 100 80 56 44 19 23 52 100 89 54 99 10 30 5 35 22 32 8
18 0 0 0 5 38 100 100 100 100 59 4 4 2 88 100 100 100 100 100 100 100 84 100 100 100 100 100 97 80 100 89 87 54 24 8 24 81 100 100 91 73 100 86 45 41 5 5 5
94 18 0 0 43 37 98 97 100 100 87 98 4 5 38 100 100 100 100 100 100 99 100 86 100 100 100 100 100 78 92 76 69 55 77 30 30 54 85 92 60 74 77 40 14 7 6 11 5
100 89 5 5 93 100 100 75 100 100 100 98 62 50 4 85 96 100 100 87 100 98 94 100 100 100 100 100 100 94 74 94 82 67 96 61 62 30 96 57 44 41 64 30 75 6 44 28 5
100 57 8 5 50 91 100 100 100 100 99 91 64 92 7 74 100 100 100 71 95 71 98 100 100 100 91 88 100 100 99 100 75 90 100 100 49 6 86 96 46 35 22 17 19 47 30 62 46
79 76 94 2 2 4 100 91 80 100 100 85 84 100 89 100 100 73 96 100 88 100 100 100 100 100 98 100 100 100 100 38 40 48 23 28 5 5 5 81 48 29 26 32 22 73 79 75 88
92 68 62 9 2 30 100 98 100 100 100 93 90 100 100 100 100 99 100 100 100 100 100 100 100 100 100 100 100 100 100 53 61 55 57 50 5 13 5 78 87 86 56 23 21 31 90 94 84
94 11 27 98 63 14 88 100 100 100 100 100 100 100 100 100 100 100 100 100 100 100 100 100 100 100 100 100 100 100 100 100 77 58 30 5 8 41 5 5 35 76 95 87 60 83 100 100 94
11 88 100 94 100 92 64 100 100 100 100 100 100 100 100 100 100 100 98 100 100 100 100 100 100 100 100 100 100 100 100 100 100 72 30 92 71 50 47 26 5 5 5 46 21 64 70 77 16
91 97 100 99 100 100 99 100 100 100 100 100 99 100 100 100 100 100 100 100 100 100 100 100 100 100 100 100 100 100 100 100 100 100 100 100 99 13 5 5 7 7 5 62 12 55 5 10 38
95 100 68 95 100 100 100 100 100 100 100 100 100 95 98 40 95 100 100 100 100 100 100 100 100 100 100 100 100 100 100 100 100 100 100 69 5 5 70 66 73 61 98 5 12 5 5 28 55
100 100 100 100 100 100 100 100 100 100 100 100 60 92 46 95 99 100 80 100 100 100 100 100 100 100 100 100 100 100 100 100 100 100 81 91 89 100 100 100 93 79 68 67 32 50 22 49 46
100 100 100 100 100 100 100 100 100 100 100 88 60 99 100 100 100 52 100 100 100 100 100 100 100 100 100 100 100 100 100 100 100 100 100 100 100 100 100 98 82 57 23 39 69 97 99 100 81
100 100 100 100 100 100 100 100 100 100 100 100 100 100 98 100 99 96 100 100 100 100 100 100 100 100 100 100 100 100 100 100 100 100 100 100 96 100 100 100 100 100 100 100 100 100 100 100 100
100 100 100 100 100 100 100 100 99 100 64 100 86 94 76 83 100 100 100 100 100 100 100 100 100 100 100 99 100 86 100 100 100 100 100 100 100 100 100 100 100 100 100 100 100 100 100 100 100
99 100 100 100 100 100 100 100 100 59 100 100 99 98 100 100 100 100 100 100 99 100 100 100 100 100 100 100 74 84 78 85 93 100 90 100 100 100 100 100 100 100 100 100 100 100 100 100 100
100 100 100 100 100 100 100 100 100 99 86 100 97 100 100 100 100 100 100 100 100 100 100 87 100 100 100 100 80 89 84 70 100 99 93 100 100 100 100 100 100 100 100 100 100 100 100 100 100
92 37 100 100 100 100 100 98 100 100 100 100 100 100 100 100 100 100 100 100 100 100 100 100 100 100 97 100 100 100 94 85 82 66 100 100 100 100 100 100 100 100 100 100 91 64 48 100 99
86 57 63 100 100 100 100 100 100 100 100 100 100 100 100 100 100 100 100 100 100 100 100 100 100 100 100 100 100 100 100 100 100 100 100 100 100 100 100 100 100 100 100 98 100 100 88 60 73
100 100 50 100 98 100 100 95 48 100 100 100 100 100 100 100 100 100 100 100 100 100 100 100 100 100 100 100 100 100 100 100 100 100 100 100 100 100 100 100 100 100 100 100 100 100 100 94 100

GFSSGP_prec_cloud_372.txt.gz
Cloud_Cover
27 62 2 5 1 90 40 60 5 17 100 100 6 5 44 46 5 5 5 39 17 17 59 79 88 100 61 46 5 5 5 5 3 2 5 4 1 1 4 8 5 5 5 34 5 97 100 62 63
79 35 20 2 0 5 68 88 47 6 88 100 5 5 6 82 5 5 3 5 5 5 28 74 83 72 54 100 18 5 8 6 5 5 5 5 13 21 17 8 3 4 12 5 5 44 5 4 88
100 100 93 4 0 27 100 100 100 77 0 9 89 9 9 33 5 5 5 5 4 5 10 46 11 9 100 100 100 5 5 8 5 5 5 5 5 19 35 7 0 0 1 0 6 42 5 4 4
100 100 100 100 41 92 70 100 7 5 5 0 2 5 77 5 71 33 2 0 5 5 12 55 5 40 46 100 100 81 5 6 87 5 5 5 5 27 5 0 0 26 0 0 0 70 0 0 0
100 100 100 100 100 100 100 100 5 0 0 1 0 0 44 5 16 100 0 4 1 2 4 21 9 5 99 100 100 96 17 49 25 55 4 5 7 10 5 5 0 19 9 1 38 9 0 0 0
94 2 43 100 100 100 100 100 100 45 0 0 4 3 0 5 2 84 2 0 0 0 5 10 16 29 68 100 94 99 100 95 34 7 15 18 5 26 5 46 24 100 100 80 100 65 0 0 0
5 53 43 2 18 39 100 100 100 100 48 3 81 5 3 0 100 100 6 5 35 2 11 29 24 33 17 5 92 22 41 37 99 92 27 100 62 5 5 5 5 78 97 100 86 24 4 0 0
0 5 6 53 45 6 5 90 98 100 100 21 5 5 5 0 0 99 50 0 32 24 1 32 42 32 57 8 38 85 5 66 30 94 95 88 97 15 5 5 5 5 5 5 26 5 5 3 0
0 4 1 0 0 7 60 3 3 3 72 100 29 5 47 55 0 0 10 98 100 100 72 4 40 98 32 6 14 25 5 7 90 100 75 5 99 89 10 5 5 5 5 1 5 5 5 2 1
0 0 0 0 0 0 0 0 1 0 0 0 88 100 74 14 38 0 0 87 92 100 99 21 6 10 77 99 13 54 3 5 17 100 83 61 41 100 100 50 6 5 5 5 5 5 1 3 1
1 3 0 0 0 0 0 0 0 0 0 0 0 95 100 68 100 0 4 0 0 85 100 84 45 32 4 62 20 78 12 55 17 87 18 99 45 72 100 89 86 7 7 9 5 5 5 2 20
5 5 2 1 0 0 0 0 0 0 0 0 0 71 80 97 100 88 12 8 30 90 100 100 35 70 10 6 62 6 68 14 7 14 7 98 99 94 30 50 22 20 7 5 5 5 6 11 5
7 4 4 2 5 4 5 0 0 0 0 4 0 48 100 90 97 100 98 27 97 100 100 100 29 100 100 47 29 18 85 37 87 25 90 96 100 100 81 6 5 5 5 16 5 14 5 5 5
4 4 4 1 2 5 80 1 0 0 0 0 0 68 100 79 18 79 100 100 100 100 100 100 60 83 100 91 61 46 65 89 100 100 100 100 100 93 36 10 21 5 8 86 18 14 13 5 5
99 51 5 5 0 0 4 90 5 0 0 0 0 1 100 100 100 99 100 100 100 100 100 100 63 82 100 100 100 37 96 100 100 100 100 100 100 100 54 47 100 65 100 98 5 7 10 33 12
88 93 92 0 0 0 24 20 0 0 0 0 0 0 87 24 4 100 100 100 100 100 100 100 70 100 100 98 90 42 100 100 100 100 100 100 100 100 100 100 100 100 100 73 6 7 9 5 4
100 68 32 3 46 3 69 66 0 0 0 0 0 0 88 100 100 99 79 100 100 100 100 100 77 98 100 85 84 44 68 100 100 100 95 100 100 100 94 98 85 6 67 100 96 6 5 5 5
6 26 33 19 3 100 14 42 6 7 4 0 0 0 100 100 100 100 100 100 100 100 100 100 100 84 100 90 96 98 100 100 100 100 81 54 74 26 22 77 6 4 3 4 42 5 6 80 23
7 85 25 21 32 23 41 35 94 100 28 0 0 0 99 99 76 100 100 100 100 100 100 100 100 100 100 100 100 100 100 100 100 100 93 93 24 64 24 11 23 6 70 0 1 5 5 5 10
96 97 70 100 100 100 100 100 100 25 5 0 84 2 14 98 100 95 100 100 100 100 100 100 100 100 100 100 100 100 100 100 100 100 100 100 100 33 51 18 14 7 48 13 23 54 5 7 5
92 100 45 92 100 100 100 98 100 27 3 2 13 99 100 100 100 100 85 100 100 100 100 100 100 100 100 100 100 100 98 100 100 100 100 100 100 100 67 78 27 22 11 63 41 7 37 41 39
100 100 100 100 100 100 100 100 100 6 0 5 95 100 100 100 100 100 100 100 100 100 100 100 90 100 100 100 100 100 100 100 100 100 100 100 100 100 100 100 100 99 97 99 81 87 70 43 89
98 100 100 100 100 100 100 100 100 4 5 96 100 100 100 100 100 100 100 100 100 100 100 100 100 100 100 100 100 100 100 100 100 100 100 100 100 100 100 100 100 97 76 82 92 88 71 89 100
100 100 100 100 100 100 100 100 100 79 22 98 100 100 100 100 100 100 100 100 100 100 100 100 100 100 100 100 100 100 100 100 100 100 100 100 100 100 100 100 100 100 100 100 100 100 100 100 100
100 100 92 96 100 100 100 100 91 88 100 100 100 100 100 100 100 100 100 100 100 100 100 100 100 100 100 100 100 100 100 100 100 100 100 100 100 100 100 100 100 100 100 100 100 100 100 100 100
100 91 100 100 100 100 100 97 100 90 100 100 100 100 100 100 100 100 100 100 100 100 100 100 100 100 100 100 100 100 100 72 100 100 100 100 100 100 100 100 100 100 100 100 100 100 100 100 100
100 99 100 99 100 100 100 100 100 85 89 100 100 100 100 100 100 100 100 100 100 100 100 100 100 100 100 100 100 100 100 74 99 98 85 52 100 100 100 100 100 100 100 100 100 100 100 100 100
100 100 100 65 67 97 100 100 100 100 98 100 18 46 89 100 100 100 100 100 100 100 100 100 100 100 100 100 100 100 100 67 39 93 83 28 65 87 100 100 100 100 100 100 100 100 100 100 100
100 100 100 100 100 100 82 73 100 100 100 100 100 100 30 6 97 100 100 100 100 100 100 100 100 100 100 100 100 100 100 59 100 99 99 78 86 90 100 71 88 100 100 100 100 100 100 100 100
100 100 100 100 94 100 100 59 100 100 100 96 100 100 61 94 99 100 100 100 100 100 100 100 100 100 100 100 100 100 100 100 99 39 100 70 59 81 100 100 75 69 100 95 100 100 100 100 100